NOAA 16 DEB, 41523

Orbit data source: Space-Track

NOAA 16 DEB, 41523 is space debris in SSO originally from a launch on Thu, 21 Sep 2000 UTC launched from the Air Force Western Test Range (AFWTR). Debris objects in space refer to the collection of defunct objects orbiting the Earth. Examples of debris include non-operational satellites, rocket bodies, and fragments generated from explosions, collisions, or faulty payload assembly.

Loading next visibility...
Identifier
41523, 2000-055MX
Orbit
SSO
Country
Flag of USUS
Related business
Manufacturer
Unknown
Mission
Spacecraft
Bus & Motor
Unknown
Mass
Unknown
Launch date (UTC)
2000-09-21 (26 years ago)
Launch vehicle
Unknown
Launch site
Air Force Western Test Range (AFWTR)
Object type
Payload
Rocket body
Debris
Shape & HBR
Unknown shape, 0.1 m
Radar Cross Section
Medium (>0.1 m² and <1 m²)

Expand to show TLE details & history
Last TLE update: 4 days ago

TLE from 4 days ago
0 NOAA 16 DEB
1 41523U 00055MX  26169.16705937  .00002648  00000-0  10967-2 0  9992
2 41523  98.7157 250.8917 0010490  72.1858 288.0466 14.27425185524500
Epoch: 2026-06-18T04:00Z
TLE epoch observation values (Epoch: 2026-06-18T04:00:33.929Z)
Latitude
-0.00005°
Longitude
-75.66394°
Altitude
800.949 km
Speed
7.454 km/s
True Right ascension
16h 43m 34s
True Declination
0° 00' 00"
Sunlit
Object was in full shadow at epoch
Visualization orbit readout
Latitude
Unknown
Longitude
Unknown
Altitude
Unknown
Speed
Unknown
Apparent Right ascension
Unknown
Apparent Declination
Unknown
Sunlit
N/A
Visualization observer readout
Local Sidereal Time
21:46:03
Azimuth
Unknown
Elevation
Unknown
Doppler factor
Unknown
Orbital elements
Apogee altitude
805.027 km
Perigee altitude
789.972 km
Semi-major axis
7,175.636 km
Eccentricity
0.00105
Inclination
98.7157°
RAAN
250.8917°
Arg. of periapsis
72.1858°
True anomaly
287.93226°
Mean anomaly
288.0466°
Eccentric anomaly
287.98943°
Mean motion
3.57069 °/min
Orbital period
100.82 mins
BSTAR
0.0010967
Loading maneuver chart data...
Computing Atmospheric mass density...

Documentation

Showing up to 5 results
|